{"data":{"norad_id":59105,"intl_designator":"2024-043H","name":"PE2_FLT1 (TYVAK-0261)","alt_names":[],"object_type":"PAYLOAD","status":"ACTIVE","operator":null,"country":"US","launch_date":"2024-03-04","launch_site_code":"AFWTR","launch_vehicle":null,"mission":null,"orbit_class":"UNKNOWN","rcs_meters":null,"size_class":null,"mass_kg":null,"dimensions":null,"purposes":[],"wikipedia_slug":null,"has_3d_model":false,"image_url":null,"decayed_at":null,"tle_current":{"epoch":"2026-09-22T06:46:20.980128Z","epoch_age_seconds":104080,"freshness":"FRESH","line1":"1 59105U 24043H   26265.28218727  .00001028  00000+0  93157-4 0  9990","line2":"2 59105  97.8505  36.2809 0006979  76.1288 284.0709 14.97583249139181","mean_motion":14.97583249,"eccentricity":0.0006979,"inclination_deg":97.8505,"raan_deg":36.2809,"arg_perigee_deg":76.1288,"mean_anomaly_deg":284.0709,"bstar":9.3157e-5,"rev_number":13918,"period_min":96.154921668732,"perigee_km":569.51396440607,"apogee_km":579.21826825585,"semimajor_km":6952.503116331,"source":"CELESTRAK","updated_at":"2026-09-23T09:00:19.174662Z"}}}